Location: Borbetomagus
(49.6328°N, 8.3592°E)
Time: 17:41:06
(UTC+00:00)

Alouette 2 Rocket - Pass Details

Date: 19 May 2025
Orbit: 501 x 2618 km, 79.8° (Epoch: 16 June)

Event Time Altitude Azimuth Distance (km) Brightness Sun altitude
Rises 19:50:42 0° 343° (NNW) 2,613 7.9 -6.1°
Reaches altitude 10° 19:52:41 10° 341° (NNW) 1,736 7.0 -6.3°
Maximum altitude 19:56:16 71° 258° (WSW) 596 3.6 -6.7°
Drops below altitude 10° 20:00:40 10° 175° (S) 2,121 5.9 -7.3°
Enters shadow 20:02:58 - 173° (S) 3,110 6.7 -7.5°
